This demonstration page uses our WeatherBlox Daily Observations layout. Learn more.

Left ArrowRight Arrow

Hourly Observations for August 19, 2020

Temp ( °F °C ) Dew Point ( °F °C ) Humidity (%) Winds ( mph kmh ) Pressure ( in mb ) Visibility ( mi km ) Precip ( " mm )
12:54 am 00:54 Clear 65 18.3 60 15.6 84 84 S 3 6 30.06 1018 10 16.0934 0.001 0.001
1:54 am 01:54 Clear with Light Rain 66 18.9 61 16.1 84 84 SE 5 7 30.07 1018 10 16.0934 0.001 0.001
2:54 am 02:54 Clear 66 18.9 60 15.6 81 81 Calm 30.06 1018 10 16.0934 0.001 0.001
3:54 am 03:54 Clear 63 17.2 58 14.4 84 84 S 3 6 30.06 1018 10 16.0934 0 0
4:54 am 04:54 Clear 58 14.4 54 12.2 87 87 Calm 30.07 1018 10 16.0934 0.001 0.001
5:54 am 05:54 Clear 56 13.3 53 11.7 90 90 Calm 30.08 1019 10 16.0934 0 0
6:54 am 06:54 Sunny 58 14.4 55 12.8 90 90 Calm 30.09 1019 9 14.48406 0 0
7:54 am 07:54 Sunny 63 17.2 59 15 87 87 SSE 3 6 30.09 1019 9 14.48406 0 0
8:54 am 08:54 Sunny 67 19.4 61 16.1 81 81 SSE 5 7 30.09 1019 9 14.48406 0 0
9:54 am 09:54 Sunny 73 22.8 62 16.7 69 69 S 7 11 30.09 1019 10 16.0934 0 0
10:54 am 10:54 Sunny 77 25 61 16.1 58 58 S 10 17 30.07 1018 10 16.0934 0 0
11:54 am 11:54 Sunny 79 26.1 59 15 50 50 SSW 14 22 30.06 1018 10 16.0934 0 0
12:54 pm 12:54 Sunny 81 27.2 59 15 47 47 SSE 10 17 30.04 1017 10 16.0934 0 0
1:54 pm 13:54 Sunny 83 28.3 60 15.6 46 46 SSE 13 20 30.02 1017 10 16.0934 0 0
2:54 pm 14:54 Sunny 84 28.9 58 14.4 41 41 SSE 14 22 29.99 1016 10 16.0934 0 0
3:54 pm 15:54 Sunny 84 28.9 60 15.6 44 44 S 10 17 29.98 1015 10 16.0934 0 0
4:54 pm 16:54 Sunny 82 27.8 59 15 46 46 S 9 15 29.97 1015 10 16.0934 0 0
5:54 pm 17:54 Sunny 83 28.3 58 14.4 43 43 S 10 17 29.96 1015 10 16.0934 0 0
6:54 pm 18:54 Sunny 81 27.2 60 15.6 49 49 SSE 10 17 29.95 1014 10 16.0934 0 0
7:54 pm 19:54 Sunny 77 25 59 15 54 54 SSE 10 17 29.95 1014 10 16.0934 0 0
8:54 pm 20:54 Clear 74 23.3 59 15 60 60 SSE 9 15 29.95 1014 10 16.0934 0 0
9:54 pm 21:54 Clear 71 21.7 60 15.6 68 68 SSE 8 13 29.96 1015 10 16.0934 0 0
10:54 pm 22:54 Clear 68 20 59 15 73 73 S 7 11 29.98 1015 10 16.0934 0 0
11:54 pm 23:54 Clear 66 18.9 60 15.6 81 81 S 7 11 29.97 1015 10 16.0934 0 0

Powered by AerisWeather